Content
SEND FEEDBACK

Daily
Averages
Monthly
Summary
United States of America

SUNLIGHT, MONTANA


Home > North America > United States > Montana
Elevation: 4360 feet     Latitude: 45 52N     Longitude: 112 06W

WEATHER
 
SELECT A DAY
Number of Records: 191,942;   Date Range: 1/1/95 - 10/30/14
 
SHARE

PRINT THIS DATA

[ ← Previous Day ]
WEATHER ALMANAC - JANUARY 23, 2013
[ Next Day → ]
[ °C ]   °F
Weather ElementAverageHighLow
Temperature22.1 °F30.9 °F (3:53 pm)10 °F (3:53 am)
Dewpoint13.2 °F19.9 °F (7:53 pm)5 °F (3:53 am)
Humidity69.2 %81 % (2:53 am)55 % (1:21 pm)
Barometer30.20 in30.34 in (6:53 am)30.01 in (1:39 pm)
Wind Speed1.8 mph9.2 mph (6:53 pm)
Weather ElementAverage
Visibility9.5 mi
Wind DirectionENE (53.2 °)

Weather ElementTotal
Precipitation---
Heating Degree Days44.6 (Base 65)
Averaged from 25 records on January 23, 2013
WEATHER CONDITIONS BREAKOUT
WIND DIRECTION BREAKOUT
WEATHER BY HOUR - JANUARY 23, 2013
[ °C ]   °F
Local TimeTemperatureDewpointHumidityBarometerVisibilityWind DirectionWind SpeedGust SpeedPrecipitationEventsConditions
1:53 AM12.9 °F6.1 °F74 %30.27 in9.0 miCalmClear
2:53 AM10.9 °F6.1 °F81 %30.30 in10.0 miCalmClear
3:53 AM10.0 °F5.0 °F80 %30.29 in10.0 miCalmClear
4:53 AM10.0 °F5.0 °F80 %30.31 in10.0 miCalmClear
5:53 AM10.9 °F6.1 °F81 %30.32 in10.0 miCalmClear
6:53 AM12.0 °F6.1 °F77 %30.34 in10.0 miCalmClear
7:53 AM12.0 °F7.0 °F80 %30.34 in8.0 miCalmClear
8:53 AM12.9 °F8.1 °F81 %30.33 in10.0 miSSE (150°)3.5 mphClear
9:53 AM17.1 °F10.0 °F74 %30.32 in10.0 miSouth (180°)5.8 mphClear
10:53 AM19.0 °F12.0 °F74 %30.31 in10.0 miCalmClear
11:53 AM24.1 °F12.9 °F62 %30.26 in10.0 miCalmClear
12:53 PM25.0 °F14.0 °F63 %30.23 in10.0 miCalmClear
1:21 PM26.6 °F12.2 °F55 %30.03 in1.2 miCalmHaze
1:39 PM26.6 °F15.8 °F64 %30.01 in10.0 miCalmClear
1:53 PM27.0 °F15.1 °F61 %30.18 in10.0 miCalmClear
2:53 PM30.0 °F17.1 °F59 %30.16 in10.0 miSouth (180°)4.6 mphClear
3:53 PM30.9 °F17.1 °F57 %30.16 in10.0 miCalmClear
4:53 PM28.9 °F19.0 °F67 %30.15 in10.0 miSouth (190°)4.6 mphScattered Clouds
5:53 PM30.0 °F19.0 °F64 %30.15 in10.0 miCalmOvercast
6:53 PM30.9 °F19.0 °F61 %30.15 in10.0 miNNE (30°)9.2 mphOvercast
7:53 PM30.0 °F19.9 °F66 %30.15 in10.0 miSouth (170°)5.8 mphMostly Cloudy
8:53 PM30.0 °F19.0 °F64 %30.11 in10.0 miCalmScattered Clouds
9:53 PM28.0 °F19.9 °F72 %30.10 in10.0 miCalmClear
10:53 PM30.0 °F19.0 °F64 %30.07 in9.0 miESE (120°)4.6 mphOvercast
11:53 PM28.0 °F19.0 °F69 %30.08 in10.0 miNW (310°)6.9 mphOvercast
Hourly data recorded from KBTM, located miles away from Sunlight, Montana







STORIES FROM OUR PARTNERS